Information on these data can be found in provided Readme document
Contact Info: Zachary Fasnacht (zachary.fasnacht@ssaihq.com); Nickolay Krotkov (nickolay.a.krotkov@nasa.gov); Lok Lamsal (lok.lamsal@nasa.gov)

FillValue: -999.
ScaleFactor: 1e15
Units: molecules/cm^2

Date(yyyy-mm-dd),City,Country,LonCenter,LatCenter,BoundingCoordinates,Median,Q1,Q3,Mean,Baseline_Median,Baseline_Q1,Baseline_Q3,Baseline_Mean,NumGoodSamples,NumTotalSamples
2015-01-01,Xian,China,108.9001,34.2667,[108.4001 33.7667 109.4001 34.7667],9.688,4.546,14.956,13.232,8.984,5.25,14.65,12.09,149.0,588.0
2015-01-02,Xian,China,108.9001,34.2667,[108.4001 33.7667 109.4001 34.7667],10.933,5.046,15.472,13.615,10.249,5.562,15.702,12.837,162.0,594.0
2015-01-03,Xian,China,108.9001,34.2667,[108.4001 33.7667 109.4001 34.7667],11.297,5.094,18.724,14.615,10.045,5.183,16.197,12.581,191.0,597.0
2015-01-04,Xian,China,108.9001,34.2667,[108.4001 33.7667 109.4001 34.7667],11.297,5.094,18.724,14.615,9.628,5.143,16.335,12.431,191.0,603.0
2015-01-05,Xian,China,108.9001,34.2667,[108.4001 33.7667 109.4001 34.7667],11.371,5.166,19.116,14.722,9.071,4.913,15.03,12.039,206.0,590.0
2015-01-06,Xian,China,108.9001,34.2667,[108.4001 33.7667 109.4001 34.7667],13.134,5.06,26.425,16.744,9.407,4.758,16.458,12.384,170.0,588.0
2015-01-07,Xian,China,108.9001,34.2667,[108.4001 33.7667 109.4001 34.7667],9.282,4.472,23.513,14.953,8.382,4.708,16.904,11.892,188.0,584.0
2015-01-08,Xian,China,108.9001,34.2667,[108.4001 33.7667 109.4001 34.7667],11.393,5.06,24.628,15.722,9.559,4.886,17.752,12.244,172.0,584.0
2015-01-09,Xian,China,108.9001,34.2667,[108.4001 33.7667 109.4001 34.7667],11.513,5.209,19.49,14.229,10.245,5.128,17.302,12.372,178.0,590.0
2015-01-10,Xian,China,108.9001,34.2667,[108.4001 33.7667 109.4001 34.7667],11.513,5.209,19.49,14.229,9.923,5.235,16.315,12.079,178.0,565.0
2015-01-11,Xian,China,108.9001,34.2667,[108.4001 33.7667 109.4001 34.7667],9.171,5.046,18.778,12.254,9.244,5.54,16.778,11.725,153.0,557.0
2015-01-12,Xian,China,108.9001,34.2667,[108.4001 33.7667 109.4001 34.7667],9.794,5.06,19.116,12.875,9.308,5.515,16.3,11.613,167.0,549.0
2015-01-13,Xian,China,108.9001,34.2667,[108.4001 33.7667 109.4001 34.7667],9.794,5.06,19.116,12.894,9.053,5.418,16.144,11.386,166.0,545.0
2015-01-14,Xian,China,108.9001,34.2667,[108.4001 33.7667 109.4001 34.7667],9.171,5.08,18.04,12.107,8.693,5.249,15.112,10.768,199.0,538.0
2015-01-15,Xian,China,108.9001,34.2667,[108.4001 33.7667 109.4001 34.7667],10.572,5.776,19.49,13.497,8.857,5.362,14.108,10.417,161.0,542.0
2015-01-16,Xian,China,108.9001,34.2667,[108.4001 33.7667 109.4001 34.7667],12.163,6.269,20.696,14.481,9.829,5.574,15.306,11.138,195.0,541.0
2015-01-17,Xian,China,108.9001,34.2667,[108.4001 33.7667 109.4001 34.7667],11.841,6.177,19.604,14.166,9.343,4.839,14.607,10.56,180.0,542.0
2015-01-18,Xian,China,108.9001,34.2667,[108.4001 33.7667 109.4001 34.7667],11.513,5.776,18.975,13.17,9.168,4.709,14.132,10.167,151.0,548.0
2015-01-19,Xian,China,108.9001,34.2667,[108.4001 33.7667 109.4001 34.7667],11.513,5.862,18.869,13.156,9.539,5.198,14.274,10.246,155.0,549.0
2015-01-20,Xian,China,108.9001,34.2667,[108.4001 33.7667 109.4001 34.7667],11.448,5.776,18.778,12.945,9.664,5.136,14.584,10.372,140.0,553.0
2015-01-21,Xian,China,108.9001,34.2667,[108.4001 33.7667 109.4001 34.7667],11.448,5.776,18.778,12.945,9.648,5.139,14.588,10.436,140.0,542.0
2015-01-22,Xian,China,108.9001,34.2667,[108.4001 33.7667 109.4001 34.7667],13.04,7.438,19.384,14.364,10.023,5.54,14.671,10.742,122.0,540.0
2015-01-23,Xian,China,108.9001,34.2667,[108.4001 33.7667 109.4001 34.7667],13.04,7.438,19.384,14.364,9.904,5.507,14.392,10.54,122.0,538.0
2015-01-24,Xian,China,108.9001,34.2667,[108.4001 33.7667 109.4001 34.7667],13.392,7.652,19.178,14.799,8.935,5.052,12.702,9.54,85.0,538.0
2015-01-25,Xian,China,108.9001,34.2667,[108.4001 33.7667 109.4001 34.7667],13.392,7.652,19.178,14.799,8.785,5.116,13.089,9.685,85.0,587.0
2015-01-26,Xian,China,108.9001,34.2667,[108.4001 33.7667 109.4001 34.7667],13.392,7.707,19.178,14.825,8.744,5.042,12.429,9.391,87.0,605.0
2015-01-27,Xian,China,108.9001,34.2667,[108.4001 33.7667 109.4001 34.7667],12.067,7.438,18.417,13.721,7.88,4.728,12.084,9.235,73.0,601.0
2015-01-28,Xian,China,108.9001,34.2667,[108.4001 33.7667 109.4001 34.7667],12.067,7.707,18.417,14.029,7.483,4.681,11.45,8.842,89.0,595.0
2015-01-29,Xian,China,108.9001,34.2667,[108.4001 33.7667 109.4001 34.7667],16.996,10.857,21.746,17.401,7.801,4.973,11.614,9.048,56.0,593.0
2015-01-30,Xian,China,108.9001,34.2667,[108.4001 33.7667 109.4001 34.7667],16.382,8.433,21.963,16.524,8.143,4.841,12.083,9.401,83.0,586.0
2015-01-31,Xian,China,108.9001,34.2667,[108.4001 33.7667 109.4001 34.7667],12.278,6.57,23.19,14.974,6.953,4.233,10.474,8.199,49.0,590.0
2015-02-01,Xian,China,108.9001,34.2667,[108.4001 33.7667 109.4001 34.7667],9.908,6.57,15.165,12.01,7.29,4.829,10.598,8.612,87.0,590.0
2015-02-02,Xian,China,108.9001,34.2667,[108.4001 33.7667 109.4001 34.7667],9.908,6.57,15.165,12.01,7.381,4.824,10.562,8.728,87.0,590.0
2015-02-03,Xian,China,108.9001,34.2667,[108.4001 33.7667 109.4001 34.7667],9.368,5.717,12.156,10.448,7.303,4.661,9.958,8.508,109.0,596.0
2015-02-04,Xian,China,108.9001,34.2667,[108.4001 33.7667 109.4001 34.7667],9.324,5.564,12.156,10.117,7.266,4.594,10.039,8.468,138.0,598.0
2015-02-05,Xian,China,108.9001,34.2667,[108.4001 33.7667 109.4001 34.7667],9.324,5.564,12.156,10.117,6.936,4.339,9.511,7.978,138.0,600.0
2015-02-06,Xian,China,108.9001,34.2667,[108.4001 33.7667 109.4001 34.7667],9.406,5.564,12.163,10.368,7.046,4.379,9.856,8.171,164.0,588.0
2015-02-07,Xian,China,108.9001,34.2667,[108.4001 33.7667 109.4001 34.7667],9.406,5.564,12.163,10.368,7.017,4.358,9.896,8.148,164.0,585.0
2015-02-08,Xian,China,108.9001,34.2667,[108.4001 33.7667 109.4001 34.7667],7.958,4.469,11.951,9.38,6.952,4.251,10.589,8.245,189.0,582.0
2015-02-09,Xian,China,108.9001,34.2667,[108.4001 33.7667 109.4001 34.7667],7.958,4.469,11.951,9.38,6.777,4.251,9.924,7.924,189.0,580.0
2015-02-10,Xian,China,108.9001,34.2667,[108.4001 33.7667 109.4001 34.7667],8.346,4.499,11.843,9.265,6.942,4.118,10.273,8.019,223.0,587.0
2015-02-11,Xian,China,108.9001,34.2667,[108.4001 33.7667 109.4001 34.7667],8.346,4.499,11.843,9.265,7.326,4.254,10.888,8.419,223.0,561.0
2015-02-12,Xian,China,108.9001,34.2667,[108.4001 33.7667 109.4001 34.7667],7.757,4.469,11.831,8.963,7.414,4.416,11.522,8.598,207.0,556.0
2015-02-13,Xian,China,108.9001,34.2667,[108.4001 33.7667 109.4001 34.7667],7.757,4.469,11.831,8.963,7.017,4.193,11.075,8.277,207.0,553.0
2015-02-14,Xian,China,108.9001,34.2667,[108.4001 33.7667 109.4001 34.7667],7.751,4.43,11.531,8.279,6.959,4.172,10.945,7.989,180.0,553.0
2015-02-15,Xian,China,108.9001,34.2667,[108.4001 33.7667 109.4001 34.7667],7.751,4.43,11.531,8.252,7.16,4.298,11.315,8.23,182.0,545.0
2015-02-16,Xian,China,108.9001,34.2667,[108.4001 33.7667 109.4001 34.7667],6.679,4.174,10.928,7.761,6.933,4.278,10.91,8.085,144.0,547.0
2015-02-17,Xian,China,108.9001,34.2667,[108.4001 33.7667 109.4001 34.7667],6.679,4.174,10.928,7.761,6.823,4.192,10.801,7.946,144.0,546.0
2015-02-18,Xian,China,108.9001,34.2667,[108.4001 33.7667 109.4001 34.7667],6.526,4.236,11.479,8.013,7.1,4.387,11.264,8.2,118.0,549.0
2015-02-19,Xian,China,108.9001,34.2667,[108.4001 33.7667 109.4001 34.7667],6.526,4.236,11.479,8.092,7.107,4.489,11.085,8.219,89.0,555.0
2015-02-20,Xian,China,108.9001,34.2667,[108.4001 33.7667 109.4001 34.7667],6.526,4.236,11.479,8.092,7.641,4.807,11.45,8.653,89.0,559.0
2015-02-21,Xian,China,108.9001,34.2667,[108.4001 33.7667 109.4001 34.7667],5.914,4.201,9.503,7.156,7.496,4.744,10.968,8.435,63.0,562.0
2015-02-22,Xian,China,108.9001,34.2667,[108.4001 33.7667 109.4001 34.7667],6.013,4.414,9.503,7.265,7.204,4.522,11.064,8.271,78.0,549.0
2015-02-23,Xian,China,108.9001,34.2667,[108.4001 33.7667 109.4001 34.7667],8.838,5.279,11.479,8.656,7.496,4.572,11.374,8.583,53.0,547.0
2015-02-24,Xian,China,108.9001,34.2667,[108.4001 33.7667 109.4001 34.7667],6.938,5.0,11.292,7.905,7.546,4.664,11.4,8.778,78.0,544.0
2015-02-25,Xian,China,108.9001,34.2667,[108.4001 33.7667 109.4001 34.7667],5.722,4.945,8.816,6.817,7.61,4.675,12.268,9.161,42.0,543.0
2015-02-26,Xian,China,108.9001,34.2667,[108.4001 33.7667 109.4001 34.7667],5.722,4.945,8.816,6.817,7.203,4.586,11.409,8.702,42.0,592.0
2015-02-27,Xian,China,108.9001,34.2667,[108.4001 33.7667 109.4001 34.7667],5.867,5.0,9.919,7.62,7.623,4.681,11.349,8.854,71.0,609.0
2015-02-28,Xian,China,108.9001,34.2667,[108.4001 33.7667 109.4001 34.7667],5.867,5.0,9.919,7.62,7.875,4.841,11.45,9.086,71.0,599.0
2015-03-01,Xian,China,108.9001,34.2667,[108.4001 33.7667 109.4001 34.7667],6.312,5.0,11.292,7.983,8.335,5.153,12.5,9.49,94.0,591.0
2015-03-02,Xian,China,108.9001,34.2667,[108.4001 33.7667 109.4001 34.7667],6.406,5.0,11.292,8.053,8.129,5.2,12.097,9.339,92.0,588.0
2015-03-03,Xian,China,108.9001,34.2667,[108.4001 33.7667 109.4001 34.7667],6.406,5.0,11.292,8.053,8.234,5.231,12.17,9.454,92.0,580.0
2015-03-04,Xian,China,108.9001,34.2667,[108.4001 33.7667 109.4001 34.7667],6.406,5.0,11.292,8.053,8.169,5.254,12.042,9.387,92.0,583.0
2015-03-05,Xian,China,108.9001,34.2667,[108.4001 33.7667 109.4001 34.7667],6.938,5.303,11.376,8.324,8.201,5.212,11.744,9.403,108.0,582.0
2015-03-06,Xian,China,108.9001,34.2667,[108.4001 33.7667 109.4001 34.7667],6.938,5.303,11.376,8.324,8.152,5.272,11.739,9.407,108.0,584.0
2015-03-07,Xian,China,108.9001,34.2667,[108.4001 33.7667 109.4001 34.7667],9.112,5.442,13.598,9.632,8.418,5.306,12.183,9.344,138.0,589.0
2015-03-08,Xian,China,108.9001,34.2667,[108.4001 33.7667 109.4001 34.7667],9.112,5.442,13.598,9.632,8.484,5.465,11.847,9.414,138.0,593.0
2015-03-09,Xian,China,108.9001,34.2667,[108.4001 33.7667 109.4001 34.7667],9.392,5.442,13.886,9.773,9.094,5.943,12.725,9.968,123.0,595.0
2015-03-10,Xian,China,108.9001,34.2667,[108.4001 33.7667 109.4001 34.7667],9.392,5.442,13.886,9.773,9.139,5.949,12.723,9.948,123.0,583.0
2015-03-11,Xian,China,108.9001,34.2667,[108.4001 33.7667 109.4001 34.7667],10.976,6.227,15.415,10.879,9.487,6.107,13.204,10.266,98.0,582.0
2015-03-12,Xian,China,108.9001,34.2667,[108.4001 33.7667 109.4001 34.7667],10.976,6.227,15.415,10.879,9.236,6.049,12.55,9.863,98.0,579.0
2015-03-13,Xian,China,108.9001,34.2667,[108.4001 33.7667 109.4001 34.7667],10.976,6.227,15.415,10.879,9.037,5.842,12.287,9.66,98.0,577.0
2015-03-14,Xian,China,108.9001,34.2667,[108.4001 33.7667 109.4001 34.7667],9.591,5.539,15.034,9.984,8.847,5.657,12.559,9.561,100.0,582.0
2015-03-15,Xian,China,108.9001,34.2667,[108.4001 33.7667 109.4001 34.7667],9.591,5.539,15.034,9.984,9.035,5.801,12.647,9.642,100.0,559.0
2015-03-16,Xian,China,108.9001,34.2667,[108.4001 33.7667 109.4001 34.7667],9.779,5.539,15.291,10.083,8.909,5.775,12.526,9.619,77.0,555.0
2015-03-17,Xian,China,108.9001,34.2667,[108.4001 33.7667 109.4001 34.7667],9.779,5.539,15.291,10.083,8.964,5.951,12.988,9.717,77.0,551.0
2015-03-18,Xian,China,108.9001,34.2667,[108.4001 33.7667 109.4001 34.7667],9.779,5.539,15.291,10.083,9.127,5.977,12.525,9.711,77.0,553.0
2015-03-19,Xian,China,108.9001,34.2667,[108.4001 33.7667 109.4001 34.7667],9.779,5.539,15.291,10.083,9.2,5.934,12.51,9.826,77.0,544.0
2015-03-20,Xian,China,108.9001,34.2667,[108.4001 33.7667 109.4001 34.7667],10.837,5.539,15.766,10.294,9.213,5.705,12.001,9.548,61.0,546.0
2015-03-21,Xian,China,108.9001,34.2667,[108.4001 33.7667 109.4001 34.7667],8.434,5.231,14.951,9.388,8.852,5.864,12.574,9.514,84.0,546.0
2015-03-22,Xian,China,108.9001,34.2667,[108.4001 33.7667 109.4001 34.7667],6.472,4.091,10.622,7.461,8.318,5.534,11.69,9.132,54.0,549.0
2015-03-23,Xian,China,108.9001,34.2667,[108.4001 33.7667 109.4001 34.7667],5.657,4.024,9.426,7.108,7.985,5.52,11.479,8.929,60.0,555.0
2015-03-24,Xian,China,108.9001,34.2667,[108.4001 33.7667 109.4001 34.7667],5.657,4.024,9.426,7.108,8.241,5.605,11.233,9.104,60.0,559.0
2015-03-25,Xian,China,108.9001,34.2667,[108.4001 33.7667 109.4001 34.7667],5.657,4.024,9.426,7.108,8.104,5.624,11.119,8.882,60.0,560.0
2015-03-26,Xian,China,108.9001,34.2667,[108.4001 33.7667 109.4001 34.7667],5.442,3.407,8.35,6.451,8.042,5.723,11.051,8.822,80.0,548.0
2015-03-27,Xian,China,108.9001,34.2667,[108.4001 33.7667 109.4001 34.7667],5.442,3.407,8.35,6.451,7.948,5.58,11.023,8.757,80.0,547.0
2015-03-28,Xian,China,108.9001,34.2667,[108.4001 33.7667 109.4001 34.7667],5.442,3.407,8.35,6.451,8.052,5.588,11.06,8.826,80.0,546.0
2015-03-29,Xian,China,108.9001,34.2667,[108.4001 33.7667 109.4001 34.7667],4.536,3.078,6.708,5.488,8.121,5.679,11.078,8.878,49.0,546.0
2015-03-30,Xian,China,108.9001,34.2667,[108.4001 33.7667 109.4001 34.7667],4.536,3.078,6.708,5.488,7.952,5.598,11.097,8.787,49.0,589.0
2015-03-31,Xian,China,108.9001,34.2667,[108.4001 33.7667 109.4001 34.7667],4.531,3.104,6.708,5.428,7.696,5.211,10.73,8.349,55.0,603.0
2015-04-01,Xian,China,108.9001,34.2667,[108.4001 33.7667 109.4001 34.7667],4.531,3.104,6.708,5.428,7.715,5.302,10.698,8.282,55.0,597.0
2015-04-02,Xian,China,108.9001,34.2667,[108.4001 33.7667 109.4001 34.7667],4.531,2.943,6.835,5.461,7.547,5.063,10.561,8.118,78.0,588.0
2015-04-03,Xian,China,108.9001,34.2667,[108.4001 33.7667 109.4001 34.7667],4.536,2.986,7.383,5.774,7.449,4.931,10.475,7.923,84.0,590.0
2015-04-04,Xian,China,108.9001,34.2667,[108.4001 33.7667 109.4001 34.7667],4.536,2.986,7.383,5.774,7.444,4.886,10.359,7.972,84.0,580.0
2015-04-05,Xian,China,108.9001,34.2667,[108.4001 33.7667 109.4001 34.7667],3.585,2.192,6.091,4.912,7.311,4.873,10.251,7.793,61.0,581.0
2015-04-06,Xian,China,108.9001,34.2667,[108.4001 33.7667 109.4001 34.7667],4.648,3.092,7.502,5.385,7.035,4.845,10.236,7.718,101.0,579.0
2015-04-07,Xian,China,108.9001,34.2667,[108.4001 33.7667 109.4001 34.7667],5.077,2.986,7.676,5.879,6.833,4.71,10.409,7.827,103.0,581.0
2015-04-08,Xian,China,108.9001,34.2667,[108.4001 33.7667 109.4001 34.7667],5.077,2.813,7.455,5.551,6.395,4.227,9.158,7.07,130.0,588.0
2015-04-09,Xian,China,108.9001,34.2667,[108.4001 33.7667 109.4001 34.7667],4.993,2.876,7.058,5.453,6.227,4.116,8.98,6.963,158.0,593.0
2015-04-10,Xian,China,108.9001,34.2667,[108.4001 33.7667 109.4001 34.7667],5.181,3.135,7.461,5.708,6.085,3.972,9.369,7.049,140.0,594.0
2015-04-11,Xian,China,108.9001,34.2667,[108.4001 33.7667 109.4001 34.7667],5.181,3.135,7.461,5.708,5.993,4.087,8.651,6.78,140.0,582.0
2015-04-12,Xian,China,108.9001,34.2667,[108.4001 33.7667 109.4001 34.7667],5.181,3.135,7.461,5.708,5.828,3.988,8.4,6.646,140.0,577.0
2015-04-13,Xian,China,108.9001,34.2667,[108.4001 33.7667 109.4001 34.7667],5.295,3.149,7.652,5.817,5.949,4.003,8.457,6.68,152.0,576.0
2015-04-14,Xian,China,108.9001,34.2667,[108.4001 33.7667 109.4001 34.7667],5.295,3.149,7.652,5.817,5.824,3.815,8.217,6.516,152.0,581.0
2015-04-15,Xian,China,108.9001,34.2667,[108.4001 33.7667 109.4001 34.7667],5.181,3.149,7.652,5.833,5.825,3.827,8.186,6.572,147.0,589.0
2015-04-16,Xian,China,108.9001,34.2667,[108.4001 33.7667 109.4001 34.7667],5.181,3.149,7.652,5.833,5.758,3.756,7.973,6.474,147.0,564.0
2015-04-17,Xian,China,108.9001,34.2667,[108.4001 33.7667 109.4001 34.7667],5.421,3.221,7.676,5.917,5.739,3.708,8.07,6.431,139.0,559.0
2015-04-18,Xian,China,108.9001,34.2667,[108.4001 33.7667 109.4001 34.7667],5.421,3.221,7.652,5.904,5.772,3.762,8.006,6.428,155.0,552.0
2015-04-19,Xian,China,108.9001,34.2667,[108.4001 33.7667 109.4001 34.7667],5.69,3.221,7.829,6.117,5.74,3.699,8.018,6.388,171.0,553.0
2015-04-20,Xian,China,108.9001,34.2667,[108.4001 33.7667 109.4001 34.7667],5.474,3.363,8.039,6.268,5.71,3.682,8.23,6.416,201.0,547.0
2015-04-21,Xian,China,108.9001,34.2667,[108.4001 33.7667 109.4001 34.7667],5.295,3.304,8.252,6.422,5.663,3.55,8.243,6.426,161.0,550.0
2015-04-22,Xian,China,108.9001,34.2667,[108.4001 33.7667 109.4001 34.7667],5.36,3.363,7.668,6.048,5.682,3.595,8.031,6.259,192.0,548.0
2015-04-23,Xian,China,108.9001,34.2667,[108.4001 33.7667 109.4001 34.7667],5.474,3.593,8.205,6.385,5.663,3.53,8.122,6.297,167.0,549.0
2015-04-24,Xian,China,108.9001,34.2667,[108.4001 33.7667 109.4001 34.7667],5.625,4.111,8.252,6.584,5.613,3.582,8.091,6.232,139.0,552.0
2015-04-25,Xian,China,108.9001,34.2667,[108.4001 33.7667 109.4001 34.7667],5.51,3.545,8.205,6.38,5.389,3.39,7.686,5.867,166.0,557.0
2015-04-26,Xian,China,108.9001,34.2667,[108.4001 33.7667 109.4001 34.7667],5.51,3.545,8.205,6.38,5.328,3.353,7.768,5.91,166.0,561.0
2015-04-27,Xian,China,108.9001,34.2667,[108.4001 33.7667 109.4001 34.7667],5.859,3.829,9.126,6.768,5.195,3.244,7.924,5.837,184.0,550.0
2015-04-28,Xian,China,108.9001,34.2667,[108.4001 33.7667 109.4001 34.7667],5.69,4.111,8.904,6.766,5.053,3.238,7.802,5.778,172.0,547.0
2015-04-29,Xian,China,108.9001,34.2667,[108.4001 33.7667 109.4001 34.7667],5.606,3.509,8.023,6.351,5.351,3.274,7.741,5.89,206.0,544.0
2015-04-30,Xian,China,108.9001,34.2667,[108.4001 33.7667 109.4001 34.7667],5.632,3.509,8.023,6.367,5.333,3.301,7.627,5.812,205.0,542.0
2015-05-01,Xian,China,108.9001,34.2667,[108.4001 33.7667 109.4001 34.7667],5.452,3.078,7.71,5.978,5.287,3.185,7.568,5.757,242.0,592.0
2015-05-02,Xian,China,108.9001,34.2667,[108.4001 33.7667 109.4001 34.7667],5.23,2.956,7.472,5.825,5.317,3.154,7.52,5.749,259.0,607.0
2015-05-03,Xian,China,108.9001,34.2667,[108.4001 33.7667 109.4001 34.7667],5.229,2.948,7.461,5.733,5.197,3.062,7.392,5.575,237.0,604.0
2015-05-04,Xian,China,108.9001,34.2667,[108.4001 33.7667 109.4001 34.7667],5.229,2.937,7.164,5.51,5.003,2.962,7.031,5.359,244.0,598.0
2015-05-05,Xian,China,108.9001,34.2667,[108.4001 33.7667 109.4001 34.7667],5.23,2.913,7.12,5.414,5.041,3.03,6.921,5.304,232.0,592.0
2015-05-06,Xian,China,108.9001,34.2667,[108.4001 33.7667 109.4001 34.7667],5.23,2.913,7.164,5.538,5.068,3.056,6.962,5.411,264.0,585.0
2015-05-07,Xian,China,108.9001,34.2667,[108.4001 33.7667 109.4001 34.7667],5.229,2.84,7.164,5.535,5.073,3.051,6.915,5.4,225.0,589.0
2015-05-08,Xian,China,108.9001,34.2667,[108.4001 33.7667 109.4001 34.7667],4.999,2.874,6.81,5.332,4.985,3.053,6.736,5.296,260.0,588.0
2015-05-09,Xian,China,108.9001,34.2667,[108.4001 33.7667 109.4001 34.7667],4.999,2.874,6.81,5.332,4.961,3.073,6.668,5.201,260.0,594.0
2015-05-10,Xian,China,108.9001,34.2667,[108.4001 33.7667 109.4001 34.7667],5.209,2.935,6.903,5.468,4.895,3.058,6.668,5.199,239.0,597.0
2015-05-11,Xian,China,108.9001,34.2667,[108.4001 33.7667 109.4001 34.7667],5.205,2.935,6.997,5.475,4.887,3.065,6.619,5.166,268.0,599.0
2015-05-12,Xian,China,108.9001,34.2667,[108.4001 33.7667 109.4001 34.7667],5.186,2.935,6.666,5.27,5.014,3.074,6.581,5.169,273.0,604.0
2015-05-13,Xian,China,108.9001,34.2667,[108.4001 33.7667 109.4001 34.7667],5.186,2.935,6.666,5.272,4.973,3.058,6.586,5.143,275.0,590.0
2015-05-14,Xian,China,108.9001,34.2667,[108.4001 33.7667 109.4001 34.7667],5.169,2.975,6.666,5.33,4.88,3.039,6.43,5.08,241.0,588.0
2015-05-15,Xian,China,108.9001,34.2667,[108.4001 33.7667 109.4001 34.7667],5.23,3.08,6.69,5.373,4.775,3.013,6.329,5.04,257.0,586.0
2015-05-16,Xian,China,108.9001,34.2667,[108.4001 33.7667 109.4001 34.7667],5.288,3.397,6.997,5.632,4.751,3.115,6.337,5.03,220.0,583.0
2015-05-17,Xian,China,108.9001,34.2667,[108.4001 33.7667 109.4001 34.7667],5.522,3.694,7.293,5.784,4.895,3.256,6.505,5.15,224.0,591.0
2015-05-18,Xian,China,108.9001,34.2667,[108.4001 33.7667 109.4001 34.7667],5.522,3.694,7.293,5.784,4.929,3.294,6.527,5.159,224.0,563.0
2015-05-19,Xian,China,108.9001,34.2667,[108.4001 33.7667 109.4001 34.7667],5.565,3.657,7.676,5.823,4.82,3.375,6.535,5.166,214.0,557.0
2015-05-20,Xian,China,108.9001,34.2667,[108.4001 33.7667 109.4001 34.7667],5.415,3.623,7.676,5.743,4.751,3.377,6.409,5.083,223.0,555.0
2015-05-21,Xian,China,108.9001,34.2667,[108.4001 33.7667 109.4001 34.7667],5.553,3.694,7.293,5.632,4.711,3.355,6.227,4.963,191.0,552.0
2015-05-22,Xian,China,108.9001,34.2667,[108.4001 33.7667 109.4001 34.7667],5.313,3.433,7.09,5.49,4.592,3.257,6.101,4.881,203.0,544.0
2015-05-23,Xian,China,108.9001,34.2667,[108.4001 33.7667 109.4001 34.7667],5.741,3.711,7.688,5.789,4.554,3.209,6.122,4.794,166.0,547.0
2015-05-24,Xian,China,108.9001,34.2667,[108.4001 33.7667 109.4001 34.7667],5.581,3.657,7.688,5.763,4.499,3.204,6.172,4.862,168.0,544.0
2015-05-25,Xian,China,108.9001,34.2667,[108.4001 33.7667 109.4001 34.7667],5.421,3.433,7.676,5.665,4.468,3.168,6.13,4.826,160.0,549.0
2015-05-26,Xian,China,108.9001,34.2667,[108.4001 33.7667 109.4001 34.7667],5.553,3.465,7.293,5.674,4.459,3.125,6.014,4.812,131.0,555.0
2015-05-27,Xian,China,108.9001,34.2667,[108.4001 33.7667 109.4001 34.7667],5.313,3.394,7.293,5.474,4.402,3.109,5.958,4.751,108.0,557.0
2015-05-28,Xian,China,108.9001,34.2667,[108.4001 33.7667 109.4001 34.7667],4.875,3.262,7.047,5.274,4.36,3.061,5.903,4.68,131.0,563.0
2015-05-29,Xian,China,108.9001,34.2667,[108.4001 33.7667 109.4001 34.7667],4.875,3.266,7.047,5.199,4.385,3.07,5.888,4.666,155.0,549.0
2015-05-30,Xian,China,108.9001,34.2667,[108.4001 33.7667 109.4001 34.7667],4.84,3.24,6.919,5.102,4.375,2.886,5.922,4.611,139.0,545.0
2015-05-31,Xian,China,108.9001,34.2667,[108.4001 33.7667 109.4001 34.7667],4.84,3.24,6.919,5.102,4.357,2.842,5.911,4.596,139.0,542.0
2015-06-01,Xian,China,108.9001,34.2667,[108.4001 33.7667 109.4001 34.7667],4.51,2.923,6.12,4.683,4.221,2.751,5.507,4.323,103.0,540.0
2015-06-02,Xian,China,108.9001,34.2667,[108.4001 33.7667 109.4001 34.7667],4.737,2.978,6.224,4.928,4.204,2.799,5.568,4.36,130.0,589.0
2015-06-03,Xian,China,108.9001,34.2667,[108.4001 33.7667 109.4001 34.7667],4.693,3.038,6.217,4.895,4.471,2.917,5.925,4.542,129.0,605.0
2015-06-04,Xian,China,108.9001,34.2667,[108.4001 33.7667 109.4001 34.7667],4.737,3.262,6.224,4.712,4.476,2.854,6.084,4.496,120.0,600.0
2015-06-05,Xian,China,108.9001,34.2667,[108.4001 33.7667 109.4001 34.7667],4.737,3.262,6.224,4.712,4.57,2.939,6.194,4.636,120.0,595.0
2015-06-06,Xian,China,108.9001,34.2667,[108.4001 33.7667 109.4001 34.7667],4.765,3.262,6.48,4.782,4.589,2.916,6.433,4.707,126.0,593.0
2015-06-07,Xian,China,108.9001,34.2667,[108.4001 33.7667 109.4001 34.7667],4.765,3.262,6.48,4.782,4.798,3.076,6.549,4.816,126.0,585.0
2015-06-08,Xian,China,108.9001,34.2667,[108.4001 33.7667 109.4001 34.7667],4.788,3.262,6.54,4.804,4.826,3.104,6.55,4.855,124.0,589.0
2015-06-09,Xian,China,108.9001,34.2667,[108.4001 33.7667 109.4001 34.7667],4.788,3.262,6.54,4.804,4.894,3.215,6.639,4.921,124.0,586.0
2015-06-10,Xian,China,108.9001,34.2667,[108.4001 33.7667 109.4001 34.7667],4.765,3.262,6.54,4.796,4.966,3.339,6.577,4.927,135.0,587.0
2015-06-11,Xian,China,108.9001,34.2667,[108.4001 33.7667 109.4001 34.7667],4.877,3.5,6.263,4.931,4.989,3.426,6.467,4.954,153.0,592.0
2015-06-12,Xian,China,108.9001,34.2667,[108.4001 33.7667 109.4001 34.7667],5.299,3.81,6.548,5.039,5.117,3.588,6.54,5.003,147.0,595.0
2015-06-13,Xian,China,108.9001,34.2667,[108.4001 33.7667 109.4001 34.7667],5.29,3.81,6.593,5.095,5.094,3.529,6.537,5.009,123.0,601.0
2015-06-14,Xian,China,108.9001,34.2667,[108.4001 33.7667 109.4001 34.7667],5.329,3.81,6.899,5.324,5.119,3.612,6.528,5.088,144.0,591.0
2015-06-15,Xian,China,108.9001,34.2667,[108.4001 33.7667 109.4001 34.7667],5.329,3.81,6.899,5.324,5.055,3.527,6.509,5.021,144.0,589.0
2015-06-16,Xian,China,108.9001,34.2667,[108.4001 33.7667 109.4001 34.7667],5.329,3.81,6.899,5.324,5.016,3.513,6.491,5.003,144.0,586.0
2015-06-17,Xian,China,108.9001,34.2667,[108.4001 33.7667 109.4001 34.7667],5.299,3.731,6.593,5.28,4.958,3.502,6.378,4.967,117.0,586.0
2015-06-18,Xian,China,108.9001,34.2667,[108.4001 33.7667 109.4001 34.7667],4.765,3.227,6.263,4.879,4.831,3.312,6.306,4.888,127.0,595.0
2015-06-19,Xian,China,108.9001,34.2667,[108.4001 33.7667 109.4001 34.7667],4.723,3.086,6.165,4.858,4.839,3.341,6.366,4.94,109.0,569.0
2015-06-20,Xian,China,108.9001,34.2667,[108.4001 33.7667 109.4001 34.7667],4.723,3.086,6.165,4.858,4.755,3.3,6.293,4.881,109.0,561.0
2015-06-21,Xian,China,108.9001,34.2667,[108.4001 33.7667 109.4001 34.7667],4.818,3.26,6.165,4.984,4.812,3.362,6.255,4.92,91.0,555.0
2015-06-22,Xian,China,108.9001,34.2667,[108.4001 33.7667 109.4001 34.7667],4.818,3.26,6.165,4.984,4.779,3.313,6.217,4.86,91.0,556.0
2015-06-23,Xian,China,108.9001,34.2667,[108.4001 33.7667 109.4001 34.7667],4.818,3.26,6.165,4.984,4.802,3.325,6.24,4.837,91.0,546.0